User: anonymous   Login
Location: Aurora Center
(43.5271°N, 98.5894°W)
Time: 01:35:13
(UTC-05:00)
Language:

BlueWalker 3 - Orbit

View from above orbital plane
View from above orbital plane
View from above satellite
View from above satellite

Ground track
Ground track

The orbit data is extracted from the following two-line orbital elements,

1 53807U 22111AL  24197.35200060  .00008127  00000-0  31875-3 0  9994
2 53807  53.2387  63.7892 0008473 168.1542 191.9659 15.26614256102536
Epoch (UTC): 15 July 2024 08:26:52
Eccentricity: 0.0008473
inclination: 53.2387°
perigee height: 480 km
apogee height: 492 km
right ascension of ascending node: 63.7892°
argument of perigee: 168.1542°
revolutions per day: 15.26614256
mean anomaly at epoch: 191.9659°
orbit number at epoch: 10253

The dashed part of the orbit path shows where the satellite is in the earth's shadow,  

DLR